World > North America > United States > Pennsylvania > Boswell

Hourly Boswell, PA Regional Weather

Feedback E-mail the Weather

Quick WX

Boswell, PA Weather Maps

°F °C°F °C
Boswell Weather Map
UTC Time: 8/8/2022, 19:20
Your Time:

Boswell, PA Regional Weather

Expires:202208082000;;690246
ASUS41 KCTP 081910
RWRCTP

REGIONAL WEATHER ROUNDUP
NATIONAL WEATHER SERVICE STATE COLLEGE PA
300 PM EDT MON AUG 08 2022

Note: "fair" indicates few or no clouds below 12,000 feet with no 
significant weather and/or obstructions to visibility.

* = STATION THAT DOES NOT REPORT PRECIPITATION /E.G. RAIN...SNOW...ETC/
    THUNDER OR FOG.


PAZ004>006-010>012-017>019-024>028-033>037-041-042-045-046-049>053-082000-
CENTRAL PENNSYLVANIA
  
CITY           SKY/WX    TMP DP  RH WIND       PRES   REMARKS
BRADFORD       CLOUDY    78  68  71 SW9G21    30.05F                  
ST MARYS       CLOUDY    77  72  83 W6        30.08F                  
DUBOIS         PTSUNNY   80  73  79 SW9       30.05F                  
CLEARFIELD     PTSUNNY   81  74  79 SW6       30.04S                  
JOHNSTOWN      MOSUNNY   82  66  58 W12       30.10F                  
SOMERSET       MOCLDY    81  66  61 W12G17    30.12S                  
ALTOONA        PTSUNNY   86  74  67 SW7       30.05F                  
STATE COLLEGE  PTSUNNY   88  72  58 W7        30.01S                  
REEDSVILLE     LGT RAIN  81  81 100 NE3G20    29.99S                  
WELLSBORO      CLOUDY    81  68  65 SW14G22   30.02S                  
WILLIAMSPORT   MOSUNNY   93  68  43 W10       29.94F HX  97           
SELINSGROVE    MOSUNNY   93  71  48 SW9G21    29.97F HX 100           
FT INDIANTOWN  MOSUNNY   92  67  42 SW14      29.97F HX  95           
CAPITAL CITY   SUNNY     94  70  45 W13       29.98F HX 100           
HARRISBURG     PTSUNNY   93  66  40 SW7       29.97F HX  96           
YORK           MOSUNNY   92  67  43 VRB7      30.00F HX  95           
$$


SKY/WX - Weather  TMP - Temperature  DP - Dew Point  RH - Humidity
WIND - Wind Direction/Speed PRES - Barometric Pressure VSB - Visibility
WCI - Wind Chill Index E13G22 Wind - East Wind 13 mph/Gusts of 22 mph

Trending Headlines

Boswell Radar Loop



Boswell Quick Facts


National Two Day Weather Forecast


E-mail the Boswell Weather Forecast

Voice your opinion or tell us about page issues...